Temperature
20 21 21 21 20 20 20 20 20 20 20 20 20 20 20 19 19 19 19 19 19 19 19 19 19 19 19 19 19 19 19 19 19 19 19 19 19 19 19 19 18 18 19
21 21 21 21 21 20 20 20 20 20 20 19 19 19 19 19 19 19 19 19 19 19 19 19 19 19 19 19 19 19 19 19 19 19 19 19 19 19 19 19 18 18 18
21 21 21 21 21 20 20 20 20 20 20 20 19 19 19 19 19 19 19 19 19 19 19 19 19 19 19 19 19 19 19 19 19 18 18 18 18 19 19 19 18 19 18
20 21 21 21 20 20 20 20 20 20 20 20 19 19 19 19 19 19 19 19 19 19 19 19 19 19 19 19 19 19 19 19 18 18 18 18 18 19 19 19 19 19 18
20 20 20 20 20 20 20 20 19 19 19 19 19 19 19 19 19 19 19 19 19 19 19 19 18 19 19 19 19 19 19 19 18 18 18 18 19 19 19 19 19 18 18
20 20 20 20 20 20 20 19 19 19 19 19 19 19 19 19 19 19 19 19 19 19 19 19 18 18 19 19 19 19 19 18 18 18 18 18 19 19 19 19 18 18 18
20 20 20 20 20 20 20 19 19 19 19 19 19 19 19 19 19 19 19 19 19 19 19 19 19 18 18 19 19 19 19 18 18 18 18 18 19 19 19 19 18 18 18
20 20 20 20 20 20 20 19 19 19 19 19 19 19 19 19 19 19 19 18 19 19 19 19 18 18 18 18 18 19 19 18 18 18 18 18 19 19 19 19 18 18 18
20 20 20 20 20 20 20 19 19 19 19 19 19 19 19 19 19 19 19 19 19 19 19 19 19 18 18 18 18 19 19 18 18 18 18 18 18 19 19 18 18 18 18
21 20 20 19 19 19 19 19 19 19 19 19 19 19 19 19 19 19 19 19 19 19 19 19 19 19 18 18 18 18 18 18 18 18 18 18 18 18 18 18 18 18 18
21 20 20 20 19 19 19 19 19 19 19 19 19 19 19 19 19 18 18 18 18 19 19 19 19 19 19 18 18 18 18 18 18 18 18 18 18 18 18 18 18 18 18
20 20 20 19 19 19 19 19 19 19 19 19 19 19 19 18 18 18 18 18 18 18 19 19 19 19 19 19 18 19 18 18 18 18 18 18 18 18 18 18 18 18 18
19 19 19 19 19 19 19 19 19 19 18 18 18 18 18 18 18 18 18 18 18 18 19 19 18 19 19 18 18 19 19 18 18 18 18 18 18 18 18 18 18 18 18
19 19 19 19 19 19 19 19 19 18 18 18 18 18 18 18 18 18 18 18 18 18 18 18 18 18 18 18 19 19 19 19 18 18 18 18 18 18 18 18 18 18 18
18 18 18 18 18 18 18 18 18 18 18 18 18 18 18 18 18 18 18 18 18 18 18 18 18 18 19 19 19 19 19 19 19 18 18 18 18 18 18 18 18 18 18
17 17 17 17 17 18 18 18 18 18 18 18 18 18 18 18 18 18 18 18 18 18 18 18 18 18 19 19 19 19 19 19 18 18 18 18 18 18 18 18 18 18 18
16 16 16 16 17 17 17 17 18 18 18 18 18 18 18 18 18 18 18 18 18 18 18 18 18 18 19 19 19 19 19 19 19 18 18 18 18 18 17 17 17 17 17
16 16 16 16 16 16 16 16 17 17 17 17 18 18 18 18 18 18 18 18 18 18 18 18 18 18 19 19 19 19 19 19 19 18 18 18 18 18 17 17 17 17 17
16 15 15 15 15 15 16 16 16 16 16 17 17 17 18 18 18 18 18 18 18 18 18 18 18 18 18 18 18 18 18 18 18 18 18 18 18 17 17 17 17 17 17
15 15 15 15 15 15 15 15 16 16 16 16 17 17 17 17 17 17 17 17 18 18 18 18 18 18 18 18 18 18 18 18 18 18 18 18 18 18 17 17 17 17 17
14 14 14 14 14 14 14 15 15 15 16 16 16 16 17 17 17 17 17 17 17 17 17 17 18 18 18 18 18 18 18 18 18 18 18 18 18 18 18 17 17 17 17
14 14 14 13 14 14 14 14 14 14 15 15 16 16 16 16 16 17 17 17 17 17 17 17 17 17 17 17 17 17 17 18 18 18 18 18 18 18 18 17 17 17 17
13 13 13 13 13 13 13 14 14 14 14 15 15 15 16 16 16 16 16 17 17 17 17 17 17 17 17 17 17 17 17 17 18 18 18 18 18 18 18 18 17 17 17
13 13 13 13 13 13 13 13 13 13 14 14 14 15 15 15 16 16 16 16 16 16 16 17 17 17 17 17 17 17 17 17 17 17 18 18 18 18 18 18 17 17 17
13 13 13 13 13 13 13 13 13 13 13 14 14 14 15 15 15 15 16 16 16 16 16 16 16 16 16 16 16 16 16 16 17 17 17 17 17 17 17 17 17 17 17
13 13 12 12 12 12 12 13 13 13 13 13 14 14 14 15 15 15 15 15 15 16 16 16 16 16 16 16 16 16 16 16 16 16 16 17 17 17 17 17 17 17 17
Wind_Speed
11 14 13 12 11 10 10 10 10 9 8 7 7 6 5 5 4 4 4 4 4 4 4 5 5 5 6 6 6 6 6 6 5 5 5 6 7 7 7 7 6 9 9
15 16 13 12 11 10 10 9 9 8 8 7 6 6 5 4 4 4 4 4 4 4 4 4 4 5 5 5 5 5 5 4 4 3 2 5 7 7 8 9 11 9 9
16 16 13 12 11 10 9 8 8 8 7 7 6 6 5 4 4 4 4 4 4 4 4 4 4 4 5 5 5 5 4 3 4 5 3 2 7 8 8 8 9 9 8
16 15 14 13 10 9 8 7 7 7 6 6 5 5 4 4 4 3 3 3 3 3 4 4 4 4 4 4 4 4 3 4 6 8 4 8 9 9 8 8 8 8 7
14 15 16 12 10 9 8 7 6 6 5 5 4 4 3 3 3 2 3 3 3 3 3 3 3 3 3 3 3 2 2 5 8 8 7 12 11 8 8 7 7 7 6
13 16 15 12 9 8 7 7 6 5 5 4 4 3 3 3 2 2 2 3 3 3 3 3 3 2 2 2 2 2 3 6 8 5 9 12 10 8 8 7 7 6 6
12 15 14 12 9 8 7 6 6 5 5 5 4 3 3 3 2 3 3 3 3 3 3 3 2 2 1 1 1 2 4 7 9 3 10 12 10 8 8 8 7 7 7
10 12 14 13 11 9 8 7 7 6 6 6 5 5 4 4 4 3 3 3 2 2 2 2 2 1 1 0 1 2 5 8 7 1 11 13 10 8 8 8 8 8 8
8 9 11 12 11 11 10 9 9 8 8 7 7 6 6 6 6 5 5 4 4 3 3 3 2 2 2 2 2 3 6 8 10 3 9 11 9 8 7 7 7 8 8
6 5 4 7 8 11 12 12 11 10 10 9 9 9 8 8 9 9 8 8 6 5 4 4 4 4 4 4 5 6 7 9 10 2 11 11 9 7 7 7 7 8 8
9 7 5 3 1 2 8 12 13 12 11 11 11 12 11 11 12 13 13 12 10 8 7 6 6 6 7 8 9 9 8 10 8 7 11 12 9 7 6 6 7 7 8
10 9 8 6 5 5 2 4 9 10 11 12 12 13 13 13 12 11 14 15 13 11 10 9 9 9 10 10 12 11 10 12 6 9 11 12 9 7 6 6 6 7 7
7 8 8 7 6 5 3 1 2 2 5 10 12 12 13 12 9 8 10 12 13 12 11 12 11 11 12 12 10 12 12 8 4 10 12 11 9 7 6 6 6 6 7
7 8 8 8 6 5 4 2 2 2 3 3 7 9 9 5 4 5 6 11 12 11 11 10 10 13 14 13 11 11 9 5 7 12 12 12 9 7 6 6 6 6 7
8 8 8 8 7 6 4 3 3 2 3 4 5 7 7 5 5 4 4 5 7 9 9 6 7 7 6 6 5 5 5 6 8 12 12 12 10 8 7 7 7 7 7
10 9 7 7 7 6 5 4 3 3 3 4 5 8 8 6 5 5 5 3 4 5 6 7 5 5 3 2 2 1 3 5 6 12 13 13 12 10 8 7 7 7 7
9 9 8 7 6 7 7 6 4 4 5 3 4 7 8 7 6 5 5 4 3 6 6 4 5 4 4 3 3 2 2 3 5 10 13 13 12 11 10 9 8 7 8
8 9 8 8 8 7 7 6 4 5 4 4 5 6 8 8 8 5 5 4 5 6 3 3 2 2 2 2 3 3 3 3 3 6 10 13 14 13 12 11 10 9 8
8 8 9 8 8 8 7 6 5 5 4 4 5 5 6 8 8 4 5 5 5 3 4 4 3 3 2 2 2 3 3 4 3 4 5 9 13 15 14 14 13 10 9
10 10 10 9 9 8 6 5 5 5 5 4 4 4 7 7 8 6 5 5 4 4 4 3 3 3 2 2 3 3 3 3 3 3 3 5 9 14 16 15 14 12 12
11 11 10 10 9 8 7 6 5 5 5 5 4 5 6 7 7 5 5 5 5 5 5 5 4 3 2 2 1 1 1 2 3 4 3 3 5 9 15 17 15 14 13
11 11 11 11 9 8 7 6 5 5 5 5 4 4 5 5 5 5 6 6 6 5 6 6 4 3 3 2 2 1 1 3 2 3 3 3 3 5 7 13 14 15 15
12 12 12 11 11 9 9 6 6 5 4 4 5 4 4 4 3 3 4 5 6 6 6 6 6 6 4 3 3 4 3 4 2 2 4 4 4 3 3 5 9 13 15
11 11 11 12 11 10 9 7 7 6 5 6 5 4 4 3 3 3 4 5 6 5 6 6 6 5 6 5 3 2 3 3 3 2 3 3 4 3 3 3 3 7 11
11 10 10 11 11 11 10 9 7 6 6 5 5 5 4 3 2 2 2 3 4 4 6 6 6 6 6 5 4 3 3 2 3 3 3 2 1 1 2 2 2 2 6
9 9 10 10 10 10 10 9 8 8 8 8 7 5 4 3 3 3 2 2 2 3 5 5 6 7 6 6 5 4 4 3 4 3 4 3 2 2 2 1 1 2 4
Wind_Direction
119 120 123 115 108 106 107 109 113 116 120 118 117 117 110 99 90 82 75 71 65 62 56 51 50 53 53 48 47 46 47 47 47 53 60 67 71 64 56 44 61 90 93
121 122 126 120 115 112 111 112 114 116 118 118 117 116 111 105 98 91 80 71 68 70 64 58 54 57 56 51 50 50 46 32 18 19 59 83 79 71 62 58 71 86 89
119 125 130 125 123 120 119 120 120 119 119 121 122 121 118 114 107 98 87 79 74 70 71 69 65 64 60 54 50 46 35 2 335 325 318 105 96 72 66 65 74 83 86
124 134 130 130 128 127 126 126 125 123 121 121 124 125 123 119 112 105 98 97 91 80 80 78 76 71 65 57 47 37 13 329 317 321 36 80 82 74 69 68 73 80 85
121 121 124 133 133 132 133 135 135 133 130 130 131 131 131 129 126 121 109 105 97 89 86 86 85 83 71 55 42 24 340 313 314 319 72 87 79 73 71 70 73 78 87
118 119 129 134 138 141 144 147 147 149 152 153 150 148 145 145 151 148 135 121 109 101 92 92 94 96 83 57 35 2 324 312 311 311 89 96 89 79 75 74 75 80 85
119 125 138 144 150 156 158 161 168 173 175 177 177 177 177 180 181 171 161 146 135 120 107 103 105 110 98 63 18 335 313 309 293 294 101 100 95 86 79 76 77 80 86
122 129 139 155 163 169 172 178 184 190 194 196 198 201 203 204 198 190 182 173 163 154 139 130 133 142 155 213 280 292 297 300 304 330 111 106 104 92 83 80 79 81 88
113 127 147 161 174 180 182 187 194 200 205 207 209 210 211 212 214 211 205 196 188 177 169 169 176 188 205 230 246 267 281 292 297 302 115 113 111 100 90 85 85 86 92
72 93 123 153 174 186 188 195 199 203 207 211 215 217 217 220 222 220 213 202 199 197 197 197 203 211 222 233 240 251 268 286 280 115 109 114 112 106 99 93 94 93 98
30 29 41 54 37 184 193 193 195 203 209 212 217 221 222 226 221 215 217 198 196 201 206 208 212 219 227 232 233 238 252 257 251 111 109 120 119 116 111 106 104 102 104
15 10 17 14 7 354 333 181 196 203 203 210 218 213 215 228 231 218 203 190 195 202 207 212 218 225 232 229 223 228 239 242 221 124 121 126 125 128 126 123 118 115 114
10 8 6 3 359 354 346 321 236 227 208 216 227 219 214 228 224 206 178 183 195 203 210 210 215 226 228 227 202 205 224 222 170 120 129 131 132 138 140 137 134 131 129
10 5 356 355 349 344 343 330 298 278 245 235 235 234 213 218 228 226 200 188 191 199 208 200 209 220 225 223 202 206 198 186 138 122 137 139 141 149 153 149 144 144 143
6 1 358 349 345 339 332 319 315 292 283 280 270 255 226 203 216 227 227 200 200 201 196 200 209 228 219 227 214 202 173 166 143 132 141 149 149 156 162 163 158 154 154
357 351 350 343 339 332 329 314 295 287 270 265 268 271 261 227 218 221 226 215 208 224 208 193 204 235 226 217 218 164 134 146 151 139 148 155 157 161 164 167 167 165 164
349 344 345 334 337 333 325 316 311 294 279 257 247 256 265 260 242 230 221 215 206 223 230 209 215 221 213 202 195 200 186 171 168 153 156 161 164 167 168 167 168 170 169
345 341 340 336 338 329 322 306 296 290 284 274 263 253 256 256 251 248 227 220 215 215 213 204 219 219 208 203 193 192 200 173 198 173 167 165 166 170 172 171 170 171 172
343 342 341 342 338 328 320 305 293 291 283 271 261 253 258 259 253 243 235 226 219 212 205 206 198 204 201 203 214 195 194 175 198 199 187 175 166 164 168 173 171 171 174
353 351 348 345 339 330 321 314 308 301 296 287 273 260 256 256 251 232 228 226 220 212 201 196 192 204 191 186 230 216 193 188 188 206 214 178 169 170 164 169 172 178 183
358 355 349 347 344 340 331 321 313 306 304 296 284 280 274 263 253 229 224 218 221 216 206 196 193 198 208 184 214 297 271 223 213 197 211 199 188 170 163 171 179 177 182
360 356 348 346 343 339 327 319 303 297 295 288 283 280 278 265 253 242 230 219 213 214 211 198 190 182 207 197 176 176 276 296 287 214 199 218 214 170 175 184 182 174 177
2 356 349 348 348 343 336 331 325 316 312 306 299 289 280 279 262 245 240 230 219 209 212 204 194 184 197 213 195 166 173 212 244 270 213 208 213 197 193 194 185 178 175
1 356 352 352 351 348 345 343 337 331 320 311 313 308 306 295 281 260 246 229 222 213 206 205 198 194 189 209 213 196 189 157 168 248 265 222 203 190 206 211 204 184 171
359 358 357 354 355 353 351 350 347 340 327 320 319 315 314 312 297 289 268 242 225 215 205 200 198 197 197 203 199 189 202 215 206 193 239 268 285 224 221 214 187 145 144
359 1 358 360 355 353 353 356 356 346 340 337 333 327 322 315 312 317 301 271 241 229 212 201 197 195 197 198 199 200 189 186 199 196 214 222 220 244 256 245 192 131 137
Height
1537 1537 1539 1541 1542 1543 1545 1546 1547 1549 1550 1551 1552 1553 1554 1555 1556 1556 1557 1558 1558 1559 1559 1559 1560 1560 1560 1560 1561 1561 1561 1561 1561 1561 1560 1560 1560 1560 1560 1560 1559 1560 1560
1537 1539 1541 1542 1543 1545 1546 1547 1548 1550 1551 1552 1553 1554 1555 1556 1556 1557 1557 1558 1559 1559 1559 1560 1560 1560 1561 1561 1561 1562 1562 1562 1562 1562 1562 1561 1561 1561 1561 1561 1561 1561 1561
1538 1540 1542 1543 1544 1546 1547 1548 1549 1550 1551 1552 1553 1554 1555 1556 1557 1557 1558 1558 1559 1559 1560 1560 1560 1561 1561 1562 1562 1563 1563 1563 1564 1563 1563 1562 1562 1562 1562 1562 1562 1562 1562
1540 1541 1543 1544 1545 1547 1548 1549 1550 1551 1552 1553 1554 1555 1555 1556 1557 1557 1558 1558 1559 1559 1560 1560 1561 1561 1562 1562 1563 1563 1564 1564 1564 1564 1564 1563 1563 1563 1563 1562 1562 1563 1563
1542 1543 1544 1545 1546 1547 1548 1549 1550 1551 1552 1553 1554 1555 1555 1556 1557 1557 1558 1558 1559 1559 1560 1560 1560 1561 1562 1562 1563 1564 1564 1565 1565 1565 1565 1565 1564 1564 1564 1563 1563 1563 1563
1544 1544 1545 1546 1547 1548 1549 1550 1551 1551 1552 1553 1554 1554 1555 1556 1556 1557 1557 1558 1558 1559 1559 1560 1560 1561 1562 1562 1563 1564 1564 1565 1566 1566 1566 1565 1565 1565 1564 1564 1564 1564 1564
1545 1545 1546 1547 1548 1549 1549 1550 1551 1551 1552 1553 1553 1554 1555 1555 1556 1556 1557 1557 1558 1558 1559 1559 1560 1561 1561 1562 1563 1564 1565 1565 1566 1567 1566 1566 1566 1566 1565 1565 1565 1565 1565
1546 1546 1547 1548 1548 1549 1549 1550 1550 1551 1552 1552 1553 1553 1554 1555 1555 1556 1556 1557 1557 1557 1558 1559 1559 1560 1561 1562 1563 1563 1564 1565 1566 1567 1566 1566 1566 1566 1566 1565 1565 1565 1566
1547 1547 1547 1547 1548 1548 1549 1549 1550 1550 1551 1551 1552 1552 1553 1554 1554 1555 1555 1556 1556 1557 1557 1558 1559 1559 1560 1561 1562 1563 1564 1565 1566 1567 1566 1566 1567 1567 1566 1566 1566 1566 1567
1547 1547 1547 1547 1547 1547 1548 1549 1549 1549 1550 1550 1551 1551 1552 1552 1553 1554 1554 1555 1555 1556 1556 1557 1558 1559 1560 1560 1561 1563 1564 1565 1565 1566 1566 1567 1567 1567 1566 1566 1567 1567 1567
1547 1547 1547 1547 1546 1547 1547 1547 1548 1548 1549 1549 1549 1550 1550 1551 1552 1552 1553 1553 1554 1555 1555 1556 1557 1558 1559 1560 1561 1562 1563 1564 1566 1566 1566 1567 1567 1567 1567 1567 1567 1567 1568
1547 1547 1547 1546 1546 1546 1546 1545 1545 1546 1546 1547 1547 1548 1549 1549 1550 1551 1551 1552 1553 1553 1554 1555 1556 1557 1558 1559 1560 1562 1563 1564 1565 1565 1566 1566 1566 1566 1566 1567 1567 1568 1569
1547 1546 1545 1545 1544 1544 1544 1543 1543 1544 1544 1544 1545 1546 1546 1548 1549 1549 1550 1550 1551 1552 1552 1553 1554 1555 1557 1558 1559 1561 1562 1563 1564 1564 1565 1566 1566 1566 1566 1567 1567 1568 1569
1546 1545 1544 1543 1542 1542 1542 1541 1541 1541 1541 1542 1542 1543 1544 1545 1546 1548 1548 1548 1549 1550 1550 1552 1553 1554 1556 1558 1559 1560 1562 1563 1564 1564 1564 1565 1565 1565 1565 1566 1567 1568 1568
1546 1544 1543 1541 1541 1540 1539 1538 1538 1538 1538 1539 1539 1541 1542 1542 1543 1545 1546 1547 1548 1549 1549 1551 1552 1554 1556 1558 1559 1560 1561 1562 1563 1562 1563 1564 1564 1564 1564 1565 1566 1567 1568
1545 1544 1542 1540 1539 1537 1537 1536 1535 1535 1535 1535 1535 1536 1538 1539 1540 1541 1542 1544 1545 1547 1548 1549 1551 1552 1555 1556 1557 1559 1560 1561 1562 1562 1562 1563 1563 1563 1564 1564 1565 1566 1567
1545 1543 1540 1539 1537 1535 1534 1533 1532 1531 1531 1532 1532 1532 1533 1535 1536 1537 1538 1540 1541 1543 1545 1547 1549 1550 1552 1554 1555 1557 1558 1559 1560 1561 1561 1561 1562 1562 1563 1563 1564 1565 1566
1544 1542 1539 1537 1535 1533 1531 1529 1528 1528 1528 1527 1527 1528 1528 1530 1531 1532 1534 1535 1537 1539 1541 1543 1545 1548 1549 1551 1553 1555 1556 1557 1559 1560 1560 1560 1560 1561 1562 1563 1563 1564 1565
1543 1541 1538 1535 1532 1530 1528 1526 1525 1524 1524 1523 1523 1523 1524 1525 1526 1527 1529 1531 1533 1535 1537 1539 1541 1544 1546 1548 1550 1552 1554 1555 1556 1558 1559 1559 1559 1560 1560 1561 1562 1563 1564
1542 1539 1536 1533 1530 1527 1525 1523 1522 1521 1520 1519 1519 1519 1519 1520 1521 1522 1524 1526 1528 1530 1532 1535 1537 1540 1543 1545 1548 1549 1551 1552 1554 1555 1557 1558 1558 1558 1559 1560 1561 1562 1563
1541 1538 1535 1531 1528 1525 1522 1520 1518 1517 1516 1515 1515 1515 1515 1515 1516 1517 1519 1520 1522 1525 1527 1530 1533 1536 1539 1542 1544 1546 1547 1549 1550 1552 1554 1555 1556 1557 1557 1558 1559 1560 1561
1540 1536 1533 1530 1526 1523 1520 1518 1516 1514 1513 1512 1511 1511 1511 1511 1511 1512 1514 1516 1518 1521 1523 1525 1528 1531 1534 1537 1540 1542 1544 1546 1547 1549 1550 1551 1553 1555 1555 1556 1557 1558 1559
1539 1535 1532 1528 1525 1521 1519 1516 1513 1511 1510 1509 1508 1508 1507 1507 1507 1508 1509 1511 1513 1515 1518 1520 1523 1526 1529 1533 1535 1538 1540 1541 1543 1545 1546 1547 1549 1551 1553 1554 1555 1556 1556
1539 1535 1531 1527 1523 1520 1517 1514 1512 1510 1508 1507 1506 1505 1504 1504 1504 1505 1506 1507 1508 1510 1513 1515 1517 1521 1524 1527 1530 1533 1536 1537 1539 1540 1542 1544 1545 1547 1549 1551 1552 1554 1555
1539 1535 1530 1526 1523 1519 1516 1513 1511 1508 1506 1504 1503 1502 1502 1501 1501 1501 1502 1503 1504 1506 1508 1510 1513 1516 1519 1522 1525 1527 1530 1533 1535 1537 1538 1539 1541 1543 1544 1547 1549 1551 1552
1539 1534 1530 1526 1522 1519 1516 1513 1510 1507 1505 1503 1502 1500 1499 1499 1499 1499 1499 1499 1500 1502 1503 1505 1508 1511 1514 1517 1520 1522 1525 1527 1530 1532 1534 1535 1537 1539 1541 1543 1544 1547 1548